Weather History for Norfolk, NE

Change the Weather History Date:

Friday, February 15, 2013

  Actual Average Record
Temperature  
Mean Temperature 20 °F 27 °F  
Max Temperature 31 °F 37 °F 68 °F (1921)
Min Temperature 9 °F 16 °F -29 °F (1900)
Degree Days  
Heating Degree Days 45 38  
Month to date heating degree days 487 600  
Since 1 July heating degree days 4369 4622  
Cooling Degree Days 0 0  
Month to date cooling degree days 0 0  
Year to date cooling degree days 0 0  
Moisture  
Dew Point 16 °F    
Average Humidity 76    
Maximum Humidity 88    
Minimum Humidity 63    
Precipitation  
Precipitation 0.01 in 0.03 in 0.27 in (1984)
Month to date precipitation 0.10 0.38  
Year to date precipitation 0.34 0.97  
Snow  
Snow 0.10 in 0.20 in - ()
Month to date snowfall 0.7 3.2  
Since 1 July snowfall 8.5 20.5  
Snow Depth T in    
Sea Level Pressure  
Sea Level Pressure 30.33 in    
Wind  
Wind Speed 9 mph (WNW)    
Max Wind Speed 26 mph    
Max Gust Speed 33 mph    
Visibility 7 miles    
Events Fog , Snow    
T = Trace of Precipitation, MM = Missing Value Source: NWS Daily Summary

Daily Weather History Graph

Daily Weather History Graph

Search for Another Location

Airport:

Trip Planner

Search our weather history database for the weather conditions in past years. The results will help you decide how hot, cold, wet, or windy it might be!

Date:

Astronomy

Feb. 15, 2013 Rise Set
Actual Time 7:25 AM CST 6:03 PM CST
Civil Twilight 6:56 AM CST 6:31 PM CST
Nautical Twilight 6:23 AM CST 7:04 PM CST
Astronomical Twilight 5:51 AM CST 7:36 PM CST
Moon 9:55 AM CST (2/15) No Moon Set
Length of Visible Light 11h 35m
Length of Day
10h 37m
Waxing Crescent, 30% of the Moon is Illuminated
Feb 15
Waxing Crescent
Feb 17
First Quarter
Feb 25
Full
Mar 4
Last Quarter
Mar 11
New

Hourly Weather History & Observations

Time (CST) Temp. Windchill Dew Point Humidity Pressure Visibility Wind Dir Wind Speed Gust Speed Precip Events Conditions
12:56 AM 15.1 °F 5.2 °F 10.9 °F 84% 30.36 in 10.0 mi West 6.9 mph - N/A   Clear
1:56 AM 14.0 °F 2.0 °F 10.0 °F 84% 30.37 in 10.0 mi WNW 9.2 mph - N/A   Clear
2:56 AM 15.1 °F 6.4 °F 10.9 °F 84% 30.36 in 10.0 mi WSW 5.8 mph - N/A   Mostly Cloudy
3:56 AM 12.0 °F 2.7 °F 8.1 °F 84% 30.37 in 10.0 mi West 5.8 mph - N/A   Partly Cloudy
4:46 AM 15.8 °F 8.6 °F 10.4 °F 79% 30.30 in 10.0 mi West 4.6 mph - N/A   Mostly Cloudy
4:54 AM 15.8 °F 6.1 °F 10.4 °F 79% 30.30 in 10.0 mi West 6.9 mph - N/A   Scattered Clouds
4:56 AM 15.1 °F 4.2 °F 10.0 °F 80% 30.38 in 10.0 mi West 8.1 mph - N/A   Partly Cloudy
5:56 AM 16.0 °F 4.4 °F 10.9 °F 81% 30.38 in 10.0 mi West 9.2 mph - N/A   Clear
6:56 AM 15.1 °F 5.2 °F 10.0 °F 80% 30.39 in 10.0 mi West 6.9 mph - N/A   Partly Cloudy
7:56 AM 19.9 °F 14.9 °F 14.0 °F 78% 30.40 in 10.0 mi WSW 3.5 mph - N/A   Overcast
8:56 AM 21.0 °F - 16.0 °F 81% 30.39 in 10.0 mi Calm Calm - N/A   Overcast
9:56 AM 23.0 °F - 17.1 °F 78% 30.38 in 10.0 mi Calm Calm - N/A   Overcast
10:42 AM 24.8 °F 16.9 °F 17.6 °F 74% 30.30 in 2.5 mi SW 6.9 mph - 0.00 in Snow Light Snow
10:49 AM 24.8 °F 17.9 °F 17.6 °F 74% 30.30 in 1.8 mi SW 5.8 mph - 0.00 in Snow Light Snow
10:56 AM 24.1 °F 17.0 °F 18.0 °F 77% 30.37 in 1.2 mi SW 5.8 mph - 0.00 in Snow Light Snow
11:05 AM 24.8 °F 17.9 °F 19.4 °F 80% 30.29 in 3.0 mi SSW 5.8 mph - 0.00 in Snow Light Snow
11:56 AM 28.0 °F 20.8 °F 21.0 °F 75% 30.36 in 10.0 mi WSW 6.9 mph - 0.00 in   Overcast
12:30 PM 28.4 °F 18.5 °F 21.2 °F 74% 30.27 in 10.0 mi West 11.5 mph - N/A   Overcast
12:56 PM 30.9 °F 22.8 °F 19.9 °F 64% 30.33 in 10.0 mi WNW 9.2 mph - N/A   Overcast
1:45 PM 28.4 °F 16.2 °F 21.2 °F 74% 30.25 in 1.8 mi NW 17.3 mph 26.5 mph 0.00 in Snow Light Snow
1:53 PM 28.4 °F 15.1 °F 21.2 °F 74% 30.25 in 3.0 mi NW 20.7 mph 25.3 mph 0.00 in Snow Light Snow
1:56 PM 28.0 °F 16.5 °F 21.9 °F 78% 30.33 in 3.0 mi NW 15.0 mph 25.3 mph 0.00 in Snow Light Snow
2:12 PM 28.4 °F 16.2 °F 23.0 °F 80% 30.25 in 1.8 mi NNW 17.3 mph - 0.00 in Snow Light Snow
2:24 PM 28.4 °F 16.2 °F 21.2 °F 74% 30.25 in 3.0 mi NW 17.3 mph - 0.00 in Snow Light Snow
2:44 PM 28.4 °F 15.8 °F 23.0 °F 80% 30.25 in 1.8 mi NNW 18.4 mph 23.0 mph 0.00 in Snow Light Snow
2:56 PM 28.0 °F 15.7 °F 21.0 °F 75% 30.32 in 6.0 mi NW 17.3 mph - 0.00 in Snow Light Snow
3:14 PM 28.4 °F 16.6 °F 23.0 °F 80% 30.25 in 2.5 mi NW 16.1 mph - 0.00 in Snow Light Snow
3:21 PM 28.4 °F 16.6 °F 21.2 °F 74% 30.26 in 2.0 mi NNW 16.1 mph - 0.00 in Snow Light Snow
3:25 PM 26.6 °F 13.1 °F 23.0 °F 86% 30.26 in 0.5 mi NNW 19.6 mph 27.6 mph 0.00 in Fog , Snow Snow
3:33 PM 26.6 °F 12.4 °F 21.2 °F 80% 30.26 in 0.2 mi NNW 21.9 mph 27.6 mph 0.00 in Fog , Snow Snow
3:36 PM 26.6 °F 13.1 °F 21.2 °F 80% 30.26 in 0.5 mi NNW 19.6 mph 27.6 mph 0.00 in Fog , Snow Light Snow
3:41 PM 26.6 °F 12.4 °F 21.2 °F 80% 30.26 in 2.0 mi NNW 21.9 mph 27.6 mph 0.00 in Snow Light Snow
3:48 PM 26.6 °F 12.0 °F 19.4 °F 74% 30.27 in 10.0 mi NNW 23.0 mph 29.9 mph 0.00 in   Overcast
3:56 PM 27.0 °F 13.5 °F 19.0 °F 72% 30.35 in 6.0 mi NNW 19.6 mph 29.9 mph 0.00 in Snow Light Snow
4:49 PM 24.8 °F 10.7 °F 15.8 °F 69% 30.30 in 10.0 mi NNW 19.6 mph - 0.00 in   Scattered Clouds
4:56 PM 25.0 °F 10.9 °F 17.1 °F 72% 30.39 in 10.0 mi NNW 19.6 mph 27.6 mph 0.00 in   Mostly Cloudy
5:04 PM 24.8 °F 10.0 °F 15.8 °F 69% 30.31 in 10.0 mi NNW 21.9 mph 27.6 mph N/A   Mostly Cloudy
5:12 PM 24.8 °F 11.1 °F 15.8 °F 69% 30.31 in 10.0 mi NNW 18.4 mph - N/A   Overcast
5:51 PM 23.0 °F 10.1 °F 15.8 °F 74% 30.32 in 10.0 mi North 15.0 mph - N/A   Mostly Cloudy
5:56 PM 23.0 °F 9.6 °F 15.1 °F 72% 30.40 in 10.0 mi North 16.1 mph 23.0 mph N/A   Mostly Cloudy
6:16 PM 21.2 °F 8.9 °F 14.0 °F 74% 30.32 in 10.0 mi North 12.7 mph - N/A   Scattered Clouds
6:56 PM 21.0 °F 9.9 °F 15.1 °F 78% 30.41 in 10.0 mi NNW 10.4 mph - N/A   Mostly Cloudy
7:56 PM 19.0 °F 7.5 °F 12.9 °F 77% 30.41 in 10.0 mi NW 10.4 mph - N/A   Clear
8:56 PM 16.0 °F 6.3 °F 12.0 °F 84% 30.41 in 10.0 mi NNW 6.9 mph - N/A   Clear
9:56 PM 14.0 °F 5.1 °F 10.0 °F 84% 30.41 in 10.0 mi WNW 5.8 mph - N/A   Clear
10:56 PM 12.0 °F 2.7 °F 8.1 °F 84% 30.40 in 10.0 mi West 5.8 mph - N/A   Clear
11:56 PM 9.0 °F 0.6 °F 6.1 °F 88% 30.38 in 10.0 mi WSW 4.6 mph - N/A   Clear